Theta_e
352 357 357 354 364 355 357 357 354 355 354 350 349 353 354 353 355 363 346 335 334 341 345 349 351 351 349 346 347 349 352 352 348 348 347 348 350 347 348 352 351 347 349 352 350 352 352 351 353
357 359 357 354 360 354 358 353 354 353 352 350 351 352 354 357 350 349 344 337 336 342 345 349 351 349 346 347 347 352 350 348 346 347 350 347 348 352 351 351 350 351 351 353 351 352 352 352 349
357 357 358 358 354 357 357 353 353 353 351 351 353 350 351 354 348 346 340 337 338 344 346 354 351 347 347 347 349 352 351 348 347 349 348 351 352 353 352 348 352 348 349 352 352 351 352 352 349
355 355 356 356 354 355 353 353 352 352 350 349 350 352 349 347 345 345 341 339 340 345 347 352 354 354 349 350 348 347 352 347 348 349 348 353 353 353 348 350 354 353 353 353 352 351 351 351 352
347 352 356 354 355 353 352 351 350 351 350 350 348 350 350 345 345 344 342 341 343 345 347 350 350 351 349 351 347 347 347 352 353 350 352 348 354 353 351 350 351 352 352 351 351 352 349 350 348
357 355 354 355 352 354 352 350 349 349 348 348 347 349 351 347 344 343 343 344 346 346 347 350 350 351 353 350 349 348 349 351 350 351 354 353 349 351 353 347 348 353 353 352 351 351 345 344 346
357 356 351 351 352 354 354 350 351 350 350 349 346 349 350 348 345 346 346 345 345 346 348 350 350 352 350 349 348 349 348 352 348 352 351 353 354 353 350 350 350 352 352 351 351 348 347 345 344
354 354 351 351 352 352 351 350 349 350 352 347 345 349 349 350 347 346 345 344 344 346 349 349 349 351 353 351 349 352 349 352 353 351 351 351 351 351 348 347 349 351 350 352 352 348 347 345 341
350 353 350 350 352 351 350 352 349 348 350 347 347 346 344 348 346 345 345 345 345 347 348 349 350 352 354 352 352 349 352 353 350 351 347 346 351 352 350 351 348 352 353 351 348 346 345 343 338
356 349 347 346 346 347 350 350 351 350 351 352 350 346 344 345 345 345 345 346 346 347 348 349 349 349 350 348 351 352 350 348 348 350 349 349 350 351 351 350 348 349 351 344 343 343 341 342 345
354 351 350 349 346 346 348 350 349 350 354 350 352 349 346 345 346 345 345 345 345 346 347 348 349 350 349 349 351 350 350 349 349 351 350 350 348 347 348 348 348 350 347 351 350 351 349 349 349
354 350 350 349 347 348 349 349 350 350 351 347 348 348 348 348 346 345 345 345 345 346 346 347 349 351 349 349 348 347 348 348 348 350 350 350 349 349 348 347 349 349 349 349 351 350 350 351 351
353 347 347 348 347 348 349 350 350 350 348 346 347 348 350 348 346 344 345 345 345 345 346 346 348 351 350 351 348 348 348 349 349 351 350 351 353 354 355 355 355 354 354 353 353 354 354 353 354
350 348 347 345 348 348 350 350 350 350 348 348 348 349 349 348 347 347 347 347 347 346 345 346 348 350 349 349 350 348 348 348 349 350 351 355 354 354 354 354 354 354 354 354 354 354 354 354 352
351 349 346 347 348 349 349 354 352 350 350 350 349 350 349 349 349 349 349 349 349 348 345 345 346 347 348 349 349 348 348 351 351 351 352 354 354 355 356 354 354 354 354 355 356 356 355 354 352
347 346 346 347 349 349 351 353 352 350 351 352 349 350 349 350 349 350 350 349 349 349 349 345 343 345 347 347 348 348 349 350 350 351 352 354 355 356 357 355 354 353 354 354 354 354 355 353 354
344 344 344 344 348 350 352 352 350 350 350 351 351 350 352 352 350 350 350 350 349 349 350 349 344 346 349 351 352 353 353 353 354 353 353 355 356 356 358 355 355 355 355 354 353 353 355 356 354
348 344 341 341 343 348 352 352 350 351 351 351 352 349 350 352 352 350 350 350 350 350 350 351 347 348 352 353 354 353 353 353 354 354 354 355 356 357 358 355 356 352 353 355 355 355 355 356 355
345 342 340 340 342 345 348 349 349 351 351 351 351 350 349 350 350 349 350 350 350 350 351 351 351 350 353 353 353 353 352 353 353 353 355 356 356 357 359 356 356 355 355 356 357 357 355 356 355
342 342 340 339 340 345 347 348 348 350 352 352 351 350 348 349 349 349 349 350 350 350 351 352 353 353 353 352 352 351 351 351 351 351 352 356 357 357 357 355 356 357 356 358 358 358 358 355 357
341 340 338 338 338 341 348 350 349 349 351 351 350 348 347 347 349 350 349 349 349 349 350 352 353 354 355 352 353 353 354 353 353 352 352 352 356 358 358 358 351 358 358 355 358 358 359 357 359
340 337 336 337 340 343 345 343 351 349 351 352 351 350 346 345 346 347 348 348 348 349 349 351 353 353 355 356 353 354 353 352 351 351 348 348 354 357 357 359 359 360 357 358 356 359 360 360 359
337 335 336 337 339 341 346 345 351 349 350 351 352 351 346 343 345 346 346 346 346 347 349 350 352 354 353 356 355 354 355 352 353 352 350 351 352 358 357 358 359 360 361 359 361 361 361 359 359
335 335 336 338 340 343 342 342 342 341 341 342 346 350 349 344 343 344 344 345 346 347 349 349 352 355 354 356 357 355 354 354 352 353 352 350 351 353 358 357 360 361 360 361 358 362 361 359 358
335 335 339 342 343 343 340 341 341 340 338 338 340 344 350 346 344 344 346 346 346 347 348 349 351 355 355 355 355 356 356 356 355 355 353 351 351 353 354 360 361 360 362 362 361 361 362 363 363
335 335 337 343 344 343 340 340 340 338 338 338 339 339 348 347 343 344 345 345 347 348 349 349 350 354 354 355 356 356 357 356 356 354 352 350 351 351 353 358 360 362 363 363 364 361 361 363 360
333 334 333 335 338 339 339 339 339 338 336 336 338 342 347 347 343 344 346 346 348 348 349 350 350 353 353 354 356 356 357 357 353 352 353 352 351 352 356 360 360 362 363 364 363 358 363 363 363
329 331 332 334 340 343 340 341 341 339 337 336 335 341 346 347 344 344 346 347 347 348 349 350 351 352 353 352 355 355 356 357 356 355 355 352 351 352 353 356 360 361 363 364 364 359 361 361 360
330 330 330 331 335 340 343 341 339 338 335 334 335 335 343 347 345 344 345 344 348 348 348 349 350 351 353 352 352 354 355 356 358 356 356 357 354 355 356 360 359 361 363 363 364 362 360 361 361
327 329 330 333 333 334 337 339 337 336 333 333 334 335 336 344 346 343 345 345 347 349 348 349 350 350 352 352 352 353 355 356 355 356 355 357 356 356 358 359 361 362 362 363 365 362 360 361 361
Wind_Speed
2 4 4 5 5 2 7 5 8 9 8 5 11 1 2 5 5 4 16 15 21 20 18 16 13 15 12 10 11 11 10 10 11 10 9 10 8 9 10 9 7 7 8 7 8 8 8 8 9
3 2 5 3 4 6 7 5 7 5 7 12 6 5 3 5 8 12 17 19 21 20 18 15 17 15 13 10 10 11 10 10 10 10 9 9 10 11 9 9 9 9 9 8 8 8 9 9 8
2 2 3 4 2 8 9 7 8 9 11 10 4 2 1 4 7 16 20 22 20 18 17 14 18 15 14 11 10 11 10 11 10 9 9 10 10 11 10 10 9 10 10 8 8 7 8 8 8
4 4 4 1 9 8 9 7 10 9 6 2 5 6 7 3 14 10 23 21 20 17 16 16 16 15 13 11 10 9 10 10 11 9 9 11 10 10 10 10 9 9 8 8 7 7 7 7 6
4 3 2 6 9 6 5 7 6 5 5 7 5 6 10 8 10 21 21 19 18 17 15 15 14 12 12 11 10 9 9 10 11 11 10 10 10 10 11 10 10 8 8 7 6 6 6 6 5
3 4 3 5 10 4 5 7 4 5 7 6 8 14 8 10 17 20 19 17 16 16 15 13 13 11 11 10 10 9 9 9 11 10 10 9 10 11 10 10 9 9 7 6 5 5 4 4 4
5 5 7 6 8 5 5 6 4 4 5 5 10 9 9 13 18 18 17 15 15 15 14 13 11 9 9 9 9 9 10 9 11 9 9 9 9 9 8 8 7 6 5 4 4 4 4 4 4
4 4 3 3 4 9 7 9 5 1 5 9 6 5 12 17 19 18 16 15 15 15 13 12 11 10 10 8 9 10 9 9 9 7 8 8 9 7 7 7 6 5 3 3 3 4 4 4 4
3 4 6 7 1 6 8 7 5 3 9 5 3 3 19 23 21 19 17 16 15 14 14 13 11 10 9 9 9 8 10 9 9 7 7 8 7 7 6 6 6 4 3 3 4 4 3 3 3
5 3 6 4 3 3 8 6 8 6 7 7 8 12 22 24 21 20 18 18 17 17 15 13 11 11 11 10 9 10 9 9 9 8 7 6 6 6 5 6 7 5 4 3 4 3 1 1 4
1 5 3 2 5 2 5 6 7 4 4 6 12 17 20 22 20 19 17 17 18 17 15 13 12 11 11 10 10 10 9 9 9 8 7 6 6 5 5 4 4 4 3 4 1 3 3 4 4
4 3 3 1 3 5 6 6 6 7 5 4 10 20 20 19 18 17 16 15 17 16 15 14 13 12 11 10 10 10 9 9 8 8 8 7 7 6 5 4 3 3 3 2 2 2 4 6 7
7 2 4 5 7 7 6 8 4 8 3 9 14 20 19 17 18 17 15 15 14 15 16 16 15 14 12 11 10 10 10 9 9 8 8 7 5 5 4 3 2 2 2 2 3 4 6 6 8
10 8 7 4 9 8 9 6 6 10 9 13 17 19 16 16 17 16 15 15 15 14 16 16 16 15 13 12 11 10 10 9 8 8 8 8 6 5 3 3 3 3 4 3 5 6 6 7 7
9 8 5 4 8 5 8 7 11 12 14 16 17 17 16 16 17 16 17 16 16 15 15 16 16 16 15 13 12 11 10 10 9 8 8 8 8 7 5 5 6 5 5 6 6 7 7 7 8
5 7 7 6 6 5 10 4 14 14 17 17 18 17 16 17 18 17 17 17 16 16 16 16 16 17 17 15 14 12 11 10 9 9 8 9 9 8 7 6 6 5 6 6 7 7 7 9 10
6 11 13 6 8 5 13 5 8 16 17 16 17 18 16 16 17 19 18 18 17 17 17 17 18 18 17 15 14 12 10 9 8 9 9 9 10 10 10 8 6 5 5 5 6 6 7 8 9
13 14 12 10 3 9 12 14 7 14 16 16 16 17 18 17 19 21 20 19 18 17 17 17 18 18 18 15 13 12 11 10 10 10 10 11 11 12 12 9 8 5 4 5 4 6 7 8 8
11 12 12 11 7 6 12 14 11 15 16 16 17 17 18 19 19 22 21 20 19 18 19 19 20 20 18 17 16 15 14 12 11 11 10 11 12 12 12 9 7 5 5 6 5 6 6 9 8
11 12 12 9 8 8 9 11 9 16 19 18 17 17 19 20 20 21 23 23 22 21 22 22 22 22 22 18 17 15 13 13 12 11 10 10 10 11 11 8 6 5 6 6 6 6 7 7 6
13 9 13 15 18 10 9 7 5 11 15 17 18 18 19 20 20 20 22 24 24 24 25 25 25 24 23 21 17 15 11 11 11 13 13 12 11 11 12 10 8 8 6 5 3 4 5 6 4
14 11 13 16 15 11 5 6 6 6 13 18 19 19 18 20 21 20 22 24 25 24 24 26 26 26 24 23 20 19 16 15 14 14 13 15 12 11 11 10 9 9 7 6 6 5 5 5 7
13 9 12 12 15 11 8 7 9 3 7 14 20 21 21 20 21 22 20 25 24 23 23 24 26 25 25 24 25 21 19 16 14 12 11 15 14 12 12 11 10 10 8 8 8 7 7 7 9
12 14 14 12 9 11 7 7 7 3 8 6 12 20 22 21 21 21 25 24 23 23 22 23 25 25 25 25 24 25 21 20 15 15 13 16 16 13 12 13 11 9 9 8 7 6 7 9 10
10 14 10 9 9 6 6 8 7 7 12 11 6 10 23 22 21 21 21 22 24 24 23 24 25 24 24 25 25 25 24 22 20 17 16 15 16 14 12 10 9 9 10 9 7 5 6 6 5
16 13 11 10 10 9 4 7 3 11 5 10 5 3 18 23 21 22 22 24 25 26 26 25 26 24 24 25 25 24 23 23 22 20 19 19 19 17 15 14 12 11 10 9 7 6 7 5 4
16 13 18 19 17 9 14 13 13 3 9 12 12 3 14 22 21 20 21 26 26 27 29 30 29 28 27 27 25 24 24 24 22 21 21 21 19 17 16 14 13 10 9 10 8 8 8 6 5
15 8 9 12 17 17 11 12 10 8 8 10 12 9 10 19 19 19 18 23 25 28 30 31 31 31 29 27 25 25 25 25 25 23 22 20 20 20 19 16 14 12 10 9 8 9 8 6 7
9 13 13 15 12 14 13 12 5 1 5 6 10 11 1 16 20 19 19 24 27 27 28 30 32 31 29 30 28 26 26 26 25 25 24 23 22 20 18 17 15 15 13 12 11 11 11 10 9
11 15 16 12 18 14 15 16 4 5 2 5 8 11 10 7 16 19 20 23 24 26 28 29 31 31 32 32 29 28 27 26 26 27 26 24 23 21 19 17 16 16 15 15 14 13 11 11 10
Wind_Direction
224 253 271 249 228 225 80 85 114 116 138 95 130 215 58 21 357 46 133 142 145 146 148 144 150 153 146 132 130 134 129 134 138 141 146 149 150 131 122 128 132 134 130 136 127 121 117 117 121
203 276 244 277 260 101 81 108 94 109 103 141 130 129 146 88 65 123 133 145 146 145 146 146 148 158 154 147 135 134 135 127 129 137 145 142 139 128 124 132 124 128 131 127 122 120 118 116 121
228 266 267 281 32 76 92 83 98 106 136 150 120 353 49 62 117 137 133 144 144 145 147 145 147 160 152 154 140 137 135 137 138 147 135 131 127 131 125 131 127 117 125 125 124 120 118 122 127
282 208 223 289 92 90 69 90 114 126 145 166 136 105 101 75 133 132 142 143 146 146 146 154 144 154 152 151 146 144 136 135 135 136 130 130 124 118 119 123 123 125 128 120 123 124 124 131 143
281 243 174 113 96 94 91 112 139 134 134 159 198 105 109 102 122 135 141 148 147 148 146 152 152 154 156 154 146 138 138 135 133 130 138 132 129 126 113 129 129 125 122 122 126 127 133 133 136
245 273 173 105 102 108 123 144 139 110 120 121 127 126 112 125 139 143 147 150 150 149 149 151 155 159 161 152 149 147 147 145 140 134 134 127 124 120 121 119 125 131 129 128 142 153 144 139 144
304 282 60 80 90 137 144 155 159 123 131 124 137 137 122 145 146 149 151 149 151 152 151 152 156 157 154 154 152 152 153 149 143 134 139 135 124 125 125 134 136 128 137 148 155 159 163 171 184
284 272 125 71 80 89 141 170 148 162 78 121 156 158 159 144 154 153 153 152 154 157 154 151 154 159 156 156 154 157 154 154 150 150 146 142 138 138 134 133 143 138 144 165 188 179 169 184 198
280 244 93 86 148 87 157 162 159 126 144 173 127 119 137 148 154 157 158 158 161 163 159 154 151 156 153 149 160 154 161 154 157 133 151 131 150 142 143 157 144 148 140 156 145 158 170 191 199
269 25 55 29 20 53 169 187 164 185 162 149 129 117 138 153 161 165 169 169 171 167 167 159 162 159 159 160 166 166 163 160 162 160 153 155 156 158 147 165 165 178 181 189 178 188 221 106 221
49 29 1 345 343 349 154 184 178 209 198 186 176 152 155 164 171 176 180 174 174 171 170 173 173 170 166 165 167 169 165 165 165 167 166 158 164 164 177 179 195 201 218 220 197 252 247 251 255
250 195 226 284 174 178 176 168 200 204 23 166 156 165 165 173 177 179 178 174 177 176 178 181 180 177 174 170 175 170 171 170 168 171 172 164 164 160 166 166 172 182 187 223 250 264 268 265 261
243 350 235 222 196 213 170 182 185 197 125 148 148 165 172 177 175 177 172 170 177 181 185 186 183 182 179 176 178 175 176 174 174 173 177 172 173 170 174 193 217 228 206 230 269 280 281 279 285
336 301 283 230 204 191 197 196 192 176 160 150 161 172 177 179 178 175 179 176 180 179 180 182 185 185 182 182 181 180 179 179 176 182 186 192 192 196 195 206 230 248 255 266 267 271 286 300 301
304 296 199 210 191 185 209 215 218 163 171 164 173 177 179 183 185 186 187 186 184 181 176 179 184 184 184 184 185 184 183 177 180 185 196 203 207 215 231 237 250 258 272 275 277 276 288 301 311
277 222 16 116 196 161 208 314 193 170 182 178 179 178 183 187 189 190 191 190 190 184 178 182 185 185 184 182 183 185 187 185 188 193 202 215 224 233 245 247 255 264 276 280 287 299 311 321 316
34 9 16 65 185 178 213 297 164 179 189 188 186 185 188 190 193 191 195 194 189 191 185 185 188 188 184 182 183 188 190 199 203 206 211 216 229 237 242 257 263 265 272 281 283 304 310 313 324
341 352 356 7 94 225 234 253 159 189 194 193 194 192 193 196 196 194 196 195 194 191 192 190 191 191 189 187 193 198 204 211 217 218 220 224 230 238 244 256 262 273 277 287 289 304 317 313 312
309 322 344 8 12 282 253 255 239 191 203 198 195 197 195 202 198 196 198 198 197 195 194 195 195 196 193 197 199 205 209 213 219 221 222 228 235 239 244 251 261 256 271 271 294 297 304 325 346
300 312 350 344 22 291 291 284 252 190 205 204 200 199 198 199 198 198 200 200 202 198 201 198 200 198 199 202 207 214 219 221 219 218 221 231 240 238 236 240 254 242 260 261 280 299 310 317 351
296 337 345 331 331 257 292 228 185 207 203 212 211 205 202 200 198 197 202 204 204 206 203 203 203 201 202 205 206 211 218 226 217 225 232 234 240 240 234 235 236 242 247 268 274 270 291 317 330
298 2 327 326 324 330 339 326 120 180 203 211 215 211 206 196 197 198 196 203 205 207 208 207 204 202 204 203 207 211 216 221 222 226 229 229 230 240 231 227 229 239 252 263 264 264 281 287 317
296 333 313 313 306 301 170 265 117 189 202 212 216 210 210 199 194 198 202 197 205 204 204 204 203 204 204 204 208 211 222 224 223 223 228 218 224 236 230 227 230 237 244 253 260 264 268 276 279
299 289 282 256 271 275 78 312 142 62 359 345 197 212 207 202 195 197 199 201 203 202 203 198 197 202 203 204 208 212 217 220 218 218 220 219 220 226 230 228 228 233 241 244 249 254 261 258 271
247 263 269 258 239 251 66 301 292 352 349 352 320 206 203 201 196 194 198 199 202 200 200 198 196 201 202 205 209 214 218 217 220 220 219 223 218 224 221 215 224 238 238 235 241 249 264 266 252
273 287 274 264 262 274 119 266 241 353 326 28 359 263 190 194 196 195 195 197 198 199 199 200 197 200 201 206 211 214 216 217 221 220 224 220 223 221 218 217 224 223 218 225 237 261 267 277 275
265 234 250 267 269 258 265 268 263 173 8 13 22 76 178 190 192 195 195 198 198 198 199 198 199 202 202 204 207 210 212 214 217 221 221 224 226 227 225 227 230 231 229 235 233 265 268 261 269
250 302 227 224 252 262 266 249 267 292 351 14 17 48 183 189 194 191 194 195 196 199 198 199 200 202 203 206 208 211 211 213 216 219 222 223 226 228 232 232 236 236 236 245 250 261 260 249 277
187 230 233 269 260 250 252 251 299 52 358 19 26 18 196 199 193 194 193 190 194 197 196 198 201 204 204 207 209 210 212 214 216 220 223 224 225 227 228 230 233 232 238 242 243 248 240 246 249
288 284 271 241 236 231 263 258 235 101 4 39 21 31 18 305 212 203 198 199 195 197 199 200 202 204 205 207 208 211 212 213 216 220 222 223 224 225 227 228 231 234 237 237 245 251 247 255 244